SAS166 ESGG-ESSA

Flight info

Callsign SAS166
Flight time N/A
Altitude 31000
Route LABAN N873 ARS T317 ELTOK
Aircraft A20N/M-SDE2E3FGHIRWXY/LB1

Departure

Time 2026-05-05 16:50
Airport Göteborg Landvetter Airport (ESGG)

Arrival

Time N/A
Airport Stockholm-Arlanda Airport (ESSA)
Time Latitude Longitude Altitude Speed Heading
2026-05-05 16:35 57.66935 12.29464 513 ft 0 kts 115°
2026-05-05 16:40 57.66935 12.29463 513 ft 0 kts 115°
2026-05-05 16:41 57.66935 12.29464 513 ft 0 kts 115°
2026-05-05 16:41 57.66936 12.29461 513 ft 0 kts 115°
2026-05-05 16:42 57.66938 12.29455 513 ft 1 kts 116°
2026-05-05 16:42 57.66944 12.29429 513 ft 2 kts 115°
2026-05-05 16:42 57.66950 12.29404 512 ft 2 kts 115°
2026-05-05 16:42 57.66957 12.29379 511 ft 2 kts 119°
2026-05-05 16:43 57.66968 12.29360 511 ft 2 kts 158°
2026-05-05 16:43 57.66983 12.29356 510 ft 2 kts 190°
2026-05-05 16:43 57.66991 12.29361 510 ft 1 kts 208°
2026-05-05 16:43 57.66996 12.29366 510 ft 0 kts 208°
2026-05-05 16:45 57.66995 12.29366 510 ft 0 kts 207°
2026-05-05 16:45 57.66988 12.29355 510 ft 2 kts 226°
2026-05-05 16:45 57.66983 12.29326 510 ft 3 kts 263°
2026-05-05 16:46 57.66988 12.29291 510 ft 3 kts 290°
2026-05-05 16:46 57.67001 12.29240 510 ft 4 kts 297°
2026-05-05 16:46 57.67027 12.29195 510 ft 5 kts 343°
2026-05-05 16:46 57.67070 12.29209 510 ft 7 kts 23°
2026-05-05 16:47 57.67119 12.29253 510 ft 8 kts 25°
2026-05-05 16:47 57.67176 12.29304 510 ft 9 kts 25°
2026-05-05 16:47 57.67241 12.29363 510 ft 10 kts 26°
2026-05-05 16:47 57.67307 12.29424 511 ft 9 kts 26°
2026-05-05 16:48 57.67355 12.29468 512 ft 6 kts 22°
2026-05-05 16:48 57.67401 12.29467 512 ft 7 kts 330°
2026-05-05 16:48 57.67440 12.29365 510 ft 11 kts 297°
2026-05-05 16:48 57.67457 12.29248 510 ft 9 kts 271°
2026-05-05 16:49 57.67454 12.29130 510 ft 8 kts 261°
2026-05-05 16:49 57.67432 12.29033 510 ft 8 kts 221°
2026-05-05 16:49 57.67352 12.28946 510 ft 36 kts 207°
2026-05-05 16:49 57.66889 12.28524 509 ft 111 kts 205°
2026-05-05 16:50 57.66005 12.27726 595 ft 162 kts 210°
2026-05-05 16:50 57.65003 12.26767 1276 ft 165 kts 208°
2026-05-05 16:50 57.63985 12.25874 2085 ft 166 kts 209°
2026-05-05 16:50 57.62887 12.25112 2774 ft 177 kts 187°
2026-05-05 16:51 57.61660 12.25593 3398 ft 194 kts 160°
2026-05-05 16:51 57.60371 12.26587 3994 ft 212 kts 158°
2026-05-05 16:51 57.58946 12.27710 4591 ft 232 kts 158°
2026-05-05 16:51 57.57564 12.29354 5306 ft 248 kts 129°
2026-05-05 16:52 57.56856 12.32290 6027 ft 260 kts 94°